Location: Unspecified
(51.3762°N, 0.0000°E)
Time: 01:47:31
(UTC+00:00)

Tiangong 2 - Pass Details

Date: 20 May 2019
Orbit: 376 x 388 km, 42.8° (Epoch: 24 June)

Event Time Altitude Azimuth Distance (km) Brightness Sun altitude
Rises 20:56:35 0° 217° (SW) 2,228 4.8 -8.4°
Reaches altitude 10° 20:59:50 10° 180° (S) 1,379 3.4 -8.8°
Enters shadow 21:00:46 11° 162° (SSE) 1,315 3.2 -8.9°
